Hauptseite
METAR-TAF:

METAR-TAF

Flughäfen :

Tena, Ecuador

Breite: 01-03-35S, Länge: 77-35-00W, Höhe: 376 m

Beobachtung

Neuester Wetterbericht von vor 1 Stunde und 37 Minuten, um 18:00 UTC
Wind 7 kt aus West
Temperatur 23°C
Luftfeuchtigkeit 94%
Luftdruck 1019 hPa
Sichtweite 10 km oder mehr
Aufgelockert bewölkt in der Höhe von 1000 ft
Geschlossene Wolkendecke in der Höhe von 7000 ft
Nebelschwaden

METAR: SEJD 251800Z 26007KT 9999 BCFG SCT010 OVC070 23/22 Q1019 RMK A3010

Zeit: 14:37 (19:37 UTC)


TAF: fehlend

Wetterbeobachtungen und Prognosen von mehr als 4000 Flughäfen (METAR und TAF Bericht).

Die verfügbaren Stationen werden durch gelbe und rote Markierungen auf der Karte dargestellt.

Führen Sie die Maus auf sie, um den Namen der Station zu sehen.

Darauf klicken, um die Beobachtung von Wetterbeobachtungen und Prognosen zu sehen.

Um die Karte zu ändern : klicken Sie auf den grünen Tasten mit einem schwarzen Kreuz Zum Vergrößern, auf den grünen Button mit einem Gedankenstrich zu verkleinern, oder auf die grünen Pfeile für benachbarte Karten.


METAR-TAF: